Beckley, WV

3:41 AM EST on February 25, 2018 (GMT -0500)
Raleigh County Memorial

Weather History for KBKW - April, 2014

Change the Weather History Date:

Monday, April 21, 2014

  Actual Average Record
Temperature  
Mean Temperature 62 °F 54 °F  
Max Temperature 77 °F 65 °F 83 °F (1985)
Min Temperature 46 °F 43 °F 19 °F (1956)
Degree Days  
Heating Degree Days 3 11  
Month to date heating degree days 232 303  
Since 1 July heating degree days 5258 5016  
Cooling Degree Days 0 0  
Month to date cooling degree days 5 0  
Year to date cooling degree days 5 1  
Growing Degree Days 12 (Base 50)    
Moisture  
Dew Point 31 °F    
Average Humidity 34    
Maximum Humidity 49    
Minimum Humidity 19    
Precipitation  
Precipitation 0.00 in 0.11 in 6.00 in (1927)
Month to date precipitation 1.52 2.29  
Year to date precipitation 9.09 11.43  
Snow  
Snow 0.00 in - - ()
Month to date snowfall 0.6  
Since 1 September snowfall 76.3  
Snow Depth 0.00 in    
Sea Level Pressure  
Sea Level Pressure 30.03 in    
Wind  
Wind Speed 5 mph (South)    
Max Wind Speed 14 mph    
Max Gust Speed 20 mph    
Visibility 10 miles    
Events      
T = Trace of Precipitation, MM = Missing Value Source: NWS Daily Summary

Daily Weather History Graph

Daily Weather History Graph

Search for Another Location

Airport or City:

Trip Planner

Search our weather history database for the weather conditions in past years. The results will help you decide how hot, cold, wet, or windy it might be!

Date:

Astronomy

Apr. 21, 2014 Rise Set
Actual Time 6:41 AM EDT 8:05 PM EDT
Civil Twilight 6:13 AM EDT 8:33 PM EDT
Nautical Twilight 5:40 AM EDT 9:06 PM EDT
Astronomical Twilight 5:06 AM EDT 9:41 PM EDT
Moon 1:33 AM EDT (4/21) 12:07 PM EDT (4/21)
Length of Visible Light 14h 19m
Length of Day
13h 24m
Waning Gibbous, 58% of the Moon is Illuminated
Apr 21
Waning Gibbous
Apr 22
Last Quarter
Apr 29
New
May 6
First Quarter
May 14
Full

Hourly Weather History & Observations

Time (EDT) Temp. Dew Point Humidity Pressure Visibility Wind Dir Wind Speed Gust Speed Precip Events Conditions
12:51 AM 53.1 °F 27.0 °F 37% 30.16 in 10.0 mi SE 6.9 mph - N/A   Clear
1:51 AM 52.0 °F 27.0 °F 38% 30.14 in 10.0 mi South 3.5 mph - N/A   Clear
2:51 AM 50.0 °F 28.0 °F 43% 30.13 in 10.0 mi SSE 4.6 mph - N/A   Clear
3:51 AM 48.9 °F 28.0 °F 44% 30.12 in 10.0 mi SE 5.8 mph - N/A   Clear
4:51 AM 48.2 °F 28.4 °F 46% 30.16 in 10.0 mi SE 8.1 mph - N/A   Clear
5:51 AM 46.9 °F 28.9 °F 50% 30.12 in 10.0 mi SE 5.8 mph - N/A   Clear
6:51 AM 46.9 °F 28.9 °F 50% 30.13 in 10.0 mi SE 8.1 mph - N/A   Clear
7:51 AM 50.0 °F 30.0 °F 46% 30.13 in 10.0 mi SE 6.9 mph - N/A   Clear
8:51 AM 55.0 °F 30.9 °F 40% 30.12 in 10.0 mi SE 5.8 mph - N/A   Clear
9:51 AM 61.0 °F 30.9 °F 32% 30.10 in 10.0 mi South 5.8 mph - N/A   Clear
10:51 AM 66.0 °F 30.0 °F 26% 30.08 in 10.0 mi Variable 5.8 mph - N/A   Clear
11:51 AM 70.0 °F 30.0 °F 23% 30.05 in 10.0 mi NW 5.8 mph - N/A   Clear
12:51 PM 71.1 °F 32.0 °F 24% 30.02 in 10.0 mi SSE 4.6 mph - N/A   Clear
1:51 PM 73.0 °F 28.9 °F 20% 29.99 in 10.0 mi Calm Calm - N/A   Clear
2:51 PM 73.9 °F 30.0 °F 20% 29.96 in 10.0 mi SSE 4.6 mph - N/A   Clear
3:51 PM 75.0 °F 30.0 °F 19% 29.94 in 10.0 mi SW 9.2 mph - N/A   Clear
4:51 PM 75.0 °F 32.0 °F 21% 29.92 in 10.0 mi West 8.1 mph 17.3 mph N/A   Clear
5:51 PM 73.9 °F 30.9 °F 21% 29.91 in 10.0 mi WSW 10.4 mph - N/A   Clear
6:51 PM 72.0 °F 32.0 °F 23% 29.91 in 10.0 mi West 6.9 mph - N/A   Clear
7:51 PM 70.0 °F 33.1 °F 26% 29.91 in 10.0 mi WNW 5.8 mph - N/A   Clear
8:51 PM 69.1 °F 33.1 °F 26% 29.90 in 10.0 mi West 3.5 mph - N/A   Clear
9:51 PM 64.9 °F 35.1 °F 33% 29.89 in 10.0 mi Calm Calm - N/A   Clear
10:51 PM 60.1 °F 36.0 °F 41% 29.88 in 10.0 mi SSW 3.5 mph - N/A   Clear
11:51 PM 57.0 °F 36.0 °F 45% 29.88 in 10.0 mi Calm Calm - N/A   Clear